Retour au catalogue

COSMOS 2173

ActifMilitairePO
NORAD 21796·PAYLOAD·🇷🇺 Russia

Lancé Nov 27, 1991 depuis Plesetsk Cosmodrome

Loading…

Prochains Passages (prochaines 24 heures)

TLE

FraisSource: Space-Track

Époque: Sep 14, 2026, 01:59 UTC

1 21796U 91081A   26257.08286274  .00000068  00000-0  53508-4 0  9992
2 21796  82.9523 104.9809 0050524  93.2582  18.1771 13.75770137746623

Suivez COSMOS 2173 en temps réel avec AllMySat

Download on the App Store